Dewpoint
-4 -4 -6 -9 -9 -10 -10 -8 -8 -7 -1 -4 -5 -1 0 3 4 5 5 6 6 7 9 5 5 6 9 10 10 10 8 9 8 7 8 8 6 4 5 5 2 1 2 2
-4 -5 -4 -4 -7 -7 -8 -7 -3 -3 -2 -1 0 2 2 3 5 5 5 5 6 8 9 9 8 10 10 10 10 10 10 9 8 7 6 6 5 5 4 2 1 1 2 1
-4 -3 -3 -4 -5 -4 -3 -4 -2 -3 -1 -0 -0 2 3 3 4 6 6 6 7 8 9 10 11 11 11 11 11 11 10 9 6 5 4 5 5 2 2 1 2 1 1 1
-2 -3 -3 -3 -3 -3 -2 -3 -3 -1 -2 -3 -1 -2 3 4 4 5 6 7 8 9 10 10 11 11 10 10 10 10 9 6 5 4 5 5 4 4 4 3 3 2 0 -3
-1 -2 -3 -3 -1 -2 -1 -3 -3 -3 -3 -2 -1 -2 2 5 5 6 7 8 9 9 9 9 8 7 6 3 5 8 7 5 1 2 3 4 4 4 3 2 1 1 1 -2
-1 -2 -2 -2 -1 -2 -1 -1 -1 -1 -1 1 -2 -1 -5 3 3 6 7 7 8 7 7 5 4 4 4 5 5 3 3 2 2 2 3 4 3 3 1 0 -2 -4 -3 -2
-1 -1 -2 -2 -0 -0 0 0 -0 3 2 1 1 0 -5 -1 2 4 6 5 7 5 4 3 3 2 3 4 4 4 4 4 4 3 3 1 0 -2 -3 -3 -3 -2 -3 -3
-1 1 -2 -2 -1 -2 -1 -1 -1 -2 1 -0 1 1 -0 0 -0 3 5 4 5 3 3 3 3 3 4 4 5 4 4 3 3 1 -3 -11 -14 -3 -3 -2 -2 -4 -5 -4
-1 -1 -2 -2 -2 -1 -0 -0 1 4 4 5 -1 0 -0 1 1 2 4 3 3 3 3 3 3 4 4 4 4 4 3 1 -3 -10 -6 -12 -6 -7 -4 -6 -7 -5 -4 -5
-0 1 -1 -1 -2 -1 -0 -1 1 2 4 -0 -4 -2 -4 2 2 2 4 3 3 2 3 4 4 5 4 4 3 2 -1 -6 -9 -9 -10 -3 -7 -7 -9 -9 -6 -6 -7 -7
-2 -1 1 -0 -0 -0 1 0 -0 -1 2 -2 -3 -7 -1 -0 1 2 3 3 2 3 3 4 4 4 4 3 1 -2 -5 -8 -3 -3 -7 -8 -8 -10 -8 -7 -7 -7 -7 -7
-1 1 3 1 -1 -1 -1 -1 -2 -1 -0 3 3 -4 -4 -0 1 1 2 2 3 3 4 4 4 3 2 0 -1 -3 -7 -4 -6 -7 -8 -7 -11 -8 -7 -7 -7 -6 -6 -6
0 2 3 2 -0 -1 -0 -0 -2 -0 1 2 7 -6 -4 -1 0 1 1 2 3 4 4 4 3 2 1 -1 -2 -4 -4 -3 -5 -7 -8 -8 -7 -7 -7 -7 -6 -5 -6 -6
-2 2 1 2 -1 -2 -0 0 -2 -3 1 -2 -1 -9 -5 -4 -2 -1 1 2 3 3 3 3 2 1 -0 -2 -2 -4 -1 -4 -7 -8 -9 -9 -7 -7 -6 -5 -5 -6 -6 -5
1 2 1 -1 -1 -1 -2 -2 -1 -2 -3 -1 -7 -5 -10 -7 -6 -4 -0 2 3 3 2 2 2 1 -1 -2 -2 -2 -5 -6 -8 -10 -9 -8 -7 -5 -5 -4 -5 -6 -5 -4
1 3 1 2 0 -0 -0 -2 -3 -1 -2 -2 -4 -4 -6 -6 -4 -2 1 2 2 2 2 2 1 -0 -2 -2 -2 -2 -5 -7 -11 -11 -8 -9 -7 -6 -5 -5 -7 -6 -5 -5
2 3 2 1 -0 -0 5 0 -2 -3 -2 -2 -1 -4 -5 -3 -2 -2 -0 1 1 2 2 1 0 -1 -2 -3 -4 -6 -8 -11 -11 -9 -9 -8 -7 -6 -6 -7 -7 -6 -6 -5
2 1 2 4 2 8 -6 -4 -4 -3 -4 -5 -4 -6 -5 -4 -1 0 -0 0 1 2 1 1 -0 -1 -2 -4 -8 -7 -10 -11 -10 -11 -9 -7 -7 -7 -7 -6 -6 -6 -6 -6
-1 1 4 8 0 -4 -11 -6 -5 -2 -5 -6 -5 -5 -3 0 1 -0 -0 1 1 2 2 1 -1 -2 -5 -6 -6 -10 -11 -10 -11 -9 -8 -8 -7 -7 -7 -6 -6 -5 -6 -6
-1 -0 2 3 10 10 -4 -4 -2 -2 -2 -5 -3 -2 -1 1 1 -6 -3 -2 2 2 2 -0 -2 -4 -6 -8 -11 -5 -9 -9 -10 -9 -9 -8 -7 -6 -7 -6 -5 -6 -6 -7
6 6 8 4 8 1 -5 -6 -1 -0 -2 -3 -1 -0 1 1 -3 -0 -3 1 2 2 -0 -3 -4 -8 -9 -5 -2 -9 -9 -11 -10 -15 -12 -7 -7 -7 -7 -6 -6 -6 -7 -6
4 7 8 4 9 8 -4 -1 2 -1 -1 -1 -1 1 1 1 2 2 1 2 1 -1 -4 -6 -8 -4 -1 -4 -10 -10 -12 -12 -18 -16 -9 -8 -8 -7 -7 -6 -6 -6 -6 -6
3 2 3 2 1 -3 -3 -1 -1 0 -0 -0 0 -0 2 2 2 1 1 0 -3 -6 -8 -5 -3 -1 -3 -10 -14 -18 -12 -18 -16 -15 -12 -9 -7 -6 -6 -6 -6 -6 -6 -7
1 -0 2 1 -3 -2 -2 -2 -2 -2 -1 -1 -0 0 1 1 2 1 -1 -4 -6 -7 -4 0 -2 -7 -9 -16 -19 -18 -17 -16 -15 -14 -11 -7 -6 -6 -6 -7 -6 -6 -6 -6
1 0 1 1 -1 -2 -2 -1 -1 0 1 1 2 2 3 3 3 -0 -3 -4 -3 0 -1 -5 -7 -11 -16 -18 -18 -17 -16 -15 -14 -13 -10 -7 -6 -6 -6 -6 -6 -6 -6 -6
-0 1 3 2 -1 -1 -1 1 2 2 3 3 3 3 3 3 0 -3 -3 -1 -1 -2 -3 -9 -8 -11 -18 -18 -16 -15 -14 -14 -13 -12 -9 -6 -6 -6 -6 -6 -6 -6 -7 -8
Wind_Speed
6 6 7 10 5 2 6 8 11 8 4 7 6 6 4 5 11 13 14 15 14 13 9 12 13 13 14 16 17 17 15 18 14 11 6 7 5 8 6 6 6 8 9 9
6 6 4 4 5 5 6 8 7 5 4 4 9 7 6 6 9 12 14 14 13 11 10 11 12 13 14 15 16 15 14 12 7 10 10 9 9 8 8 7 8 9 8 8
13 6 4 6 8 9 4 5 11 8 8 2 10 7 8 5 6 8 9 9 10 11 11 12 13 15 15 16 16 15 13 14 15 13 12 11 9 6 6 8 8 10 11 11
4 2 4 7 7 2 6 1 7 14 12 7 9 7 9 6 6 7 9 11 11 12 14 15 16 17 18 18 17 16 16 16 14 13 8 7 6 5 6 6 7 6 10 13
3 4 5 5 4 2 4 5 6 5 5 5 10 8 8 8 9 11 13 14 16 16 17 19 19 19 17 21 20 17 16 13 14 12 9 6 5 5 4 3 4 6 8 13
3 2 3 4 6 2 11 8 6 4 3 7 3 6 5 9 12 15 18 17 18 17 19 19 18 18 17 15 16 19 17 15 14 12 9 6 5 2 1 3 6 9 12 14
6 3 4 3 9 6 6 9 3 4 4 6 2 6 12 1 2 16 21 21 20 21 21 20 19 18 15 14 15 14 13 12 11 8 5 3 1 2 2 5 8 12 14 16
9 6 4 1 3 3 6 5 4 4 4 2 3 6 1 1 4 13 22 22 23 23 21 20 19 17 15 15 13 13 12 11 8 6 3 5 6 3 5 7 10 12 14 17
6 4 4 3 2 4 6 5 3 2 1 3 5 4 8 2 7 13 22 22 24 24 22 20 18 17 15 14 13 12 10 8 6 3 2 5 6 7 6 10 12 11 13 14
4 4 3 5 3 7 3 8 3 3 3 4 3 5 2 6 10 13 20 24 25 24 22 20 18 16 15 14 15 13 9 6 4 2 3 4 6 7 10 11 9 11 12 15
5 3 5 3 5 5 4 4 1 0 2 2 3 1 3 2 8 14 22 25 25 24 22 20 18 16 16 14 14 11 9 5 5 4 7 5 5 9 9 8 10 11 15 18
2 2 4 5 3 2 2 4 7 4 4 1 2 3 3 1 3 12 18 22 23 22 21 20 19 19 17 16 13 12 10 7 5 7 4 4 9 9 9 10 11 13 17 19
6 4 4 5 4 5 7 8 5 4 1 6 3 2 3 4 5 10 15 20 21 21 21 21 21 21 19 16 14 12 10 6 7 6 5 6 8 10 10 11 13 16 19 19
3 3 6 8 1 1 6 11 11 10 4 4 9 9 7 7 7 8 14 19 22 23 23 23 23 21 19 17 15 13 8 11 10 6 6 9 10 11 11 12 15 18 18 17
3 6 4 1 1 3 4 7 13 16 13 7 8 11 9 5 8 9 11 16 21 22 24 24 23 21 19 17 16 11 12 12 10 9 9 11 11 11 11 13 16 17 16 15
2 3 2 3 2 2 7 9 11 15 15 15 18 19 15 11 9 9 12 17 22 24 24 24 23 21 19 18 15 11 12 11 11 11 10 11 11 10 12 15 17 15 15 14
4 5 4 2 2 3 7 15 17 12 12 14 14 16 3 5 9 10 12 16 20 23 25 25 23 21 18 17 14 12 12 12 11 12 12 11 11 12 13 15 14 14 14 14
5 5 1 1 2 3 1 1 3 13 16 15 18 13 9 4 4 6 9 15 19 21 22 23 21 18 16 13 12 12 12 10 13 13 10 10 12 12 14 14 14 14 14 13
1 4 3 2 4 6 11 3 3 4 6 5 12 12 7 5 4 11 10 13 15 17 19 19 17 15 15 12 13 11 9 12 12 10 11 11 12 14 14 14 14 15 13 13
4 3 1 3 3 4 3 3 1 2 5 6 5 6 9 8 4 5 2 8 11 13 17 17 18 17 14 14 10 9 10 9 11 12 12 13 14 15 16 16 14 14 11 12
2 1 3 3 4 6 1 2 3 3 3 8 5 6 11 7 8 4 5 8 12 15 17 18 18 16 17 11 8 13 9 11 11 14 16 14 15 16 16 15 15 14 12 13
5 6 3 3 3 4 6 6 3 4 6 7 8 6 12 8 7 4 5 12 16 19 19 16 20 16 6 9 12 8 8 10 14 15 15 15 16 17 15 13 15 15 13 12
3 3 1 6 1 3 9 6 5 6 10 12 10 9 11 14 10 8 8 12 15 16 17 16 13 7 9 12 10 9 9 13 14 16 17 17 15 14 13 14 16 17 14 13
4 4 3 1 1 7 8 10 12 11 14 15 14 14 14 16 12 10 12 15 18 18 18 12 7 9 7 8 11 12 12 14 16 18 17 14 13 15 15 15 17 15 13 13
2 8 4 4 11 8 5 5 6 11 12 12 11 11 12 11 9 11 14 16 16 15 12 8 7 6 8 10 11 13 14 16 18 17 16 14 13 14 15 16 16 14 14 14
3 2 2 3 8 5 8 12 13 12 12 12 11 8 6 1 7 11 13 16 17 13 9 3 6 9 12 12 12 13 15 16 17 17 15 13 15 14 15 16 15 16 17 19
Wind_Direction
193 215 196 201 210 304 176 178 150 113 103 147 190 144 92 166 186 185 187 188 185 188 189 209 209 206 185 190 180 183 223 218 234 253 198 187 193 165 194 248 244 239 246 268
199 173 74 123 140 155 168 161 132 117 141 225 174 137 121 161 182 197 193 193 191 185 180 195 188 176 183 177 176 179 200 213 176 158 161 165 176 197 217 239 247 252 263 277
232 103 157 159 134 139 120 195 169 158 150 137 179 180 180 146 175 186 195 194 191 191 176 170 169 167 167 169 172 169 178 169 173 164 164 180 207 232 248 257 263 267 275 285
84 65 154 134 117 266 156 100 162 147 183 195 207 225 177 172 172 192 180 179 169 164 158 154 154 153 156 161 164 164 164 165 167 158 183 185 205 232 229 244 257 268 292 310
102 141 133 130 74 223 105 163 156 169 199 214 195 253 118 172 194 180 167 157 156 155 155 152 152 154 156 156 161 163 163 162 174 190 195 205 200 222 236 239 279 287 298 307
99 70 26 76 71 209 135 148 133 169 224 244 245 264 215 184 211 176 167 166 165 162 159 157 156 155 153 152 157 165 165 177 189 197 203 196 215 190 236 286 302 302 300 302
155 97 105 189 122 148 221 205 216 229 222 254 77 254 261 50 174 181 176 174 174 169 168 167 166 165 166 166 166 165 163 166 170 167 171 187 236 269 318 314 313 313 309 306
180 171 190 103 285 215 195 256 232 255 227 255 185 239 110 114 223 190 183 178 174 176 177 176 176 177 176 171 171 164 160 154 160 172 196 289 292 301 316 316 311 308 305 305
181 127 130 42 185 269 147 211 39 126 70 260 245 215 216 210 190 191 184 181 182 185 185 184 184 185 182 175 168 163 160 163 177 209 262 299 302 302 289 302 309 309 315 313
155 143 176 148 198 66 303 129 180 213 233 248 199 266 275 180 187 190 189 191 191 192 192 191 191 187 180 176 184 185 171 183 192 216 299 287 281 296 310 313 313 317 318 317
167 238 151 205 216 193 151 186 61 1 289 284 299 102 68 33 191 196 199 198 197 198 198 197 194 188 181 178 182 181 187 185 172 203 282 276 297 310 311 307 313 318 319 317
120 129 174 197 103 319 282 218 205 239 181 225 314 296 147 120 211 205 207 206 206 205 201 198 192 185 182 180 179 190 192 182 240 254 253 269 300 299 299 303 312 315 317 316
173 196 170 168 176 190 226 197 197 120 117 211 189 252 168 199 218 209 213 205 206 203 198 194 190 189 186 184 185 188 189 209 241 215 228 270 289 291 293 300 307 314 315 313
182 196 240 240 43 194 197 198 196 203 202 209 238 274 202 221 222 220 215 207 203 199 195 194 193 193 190 189 190 191 262 238 218 218 258 284 287 287 287 290 304 310 311 312
233 236 216 198 102 223 246 219 203 215 230 226 269 254 277 254 239 237 222 209 205 200 198 198 196 195 192 190 193 210 228 225 224 255 278 283 288 283 278 291 304 308 309 310
164 205 187 225 217 276 262 244 234 233 245 253 263 268 286 263 250 229 209 206 209 208 206 203 199 198 195 195 199 238 207 214 246 270 279 283 281 274 283 296 305 305 306 308
168 156 163 238 350 279 281 241 227 226 229 242 250 261 250 204 221 226 219 217 218 216 210 205 201 200 198 199 215 215 205 233 262 277 280 279 279 282 286 295 299 301 303 303
139 128 75 128 223 222 340 163 272 245 255 250 260 267 271 262 229 244 237 229 227 220 212 207 202 197 193 198 197 216 220 251 273 281 273 273 277 280 286 290 295 301 302 296
30 143 124 177 219 316 279 189 214 205 290 325 269 275 242 233 261 251 236 233 232 222 211 206 201 189 190 196 218 209 252 266 279 274 272 273 273 281 285 289 293 302 302 289
78 59 235 149 218 247 49 66 188 226 280 14 303 275 206 201 243 320 269 246 214 201 196 192 186 197 196 181 194 260 255 264 270 272 278 278 284 286 289 285 289 296 293 283
123 55 210 176 242 281 293 235 157 243 17 348 303 234 195 205 266 281 249 207 193 188 185 182 192 179 175 193 229 242 253 274 272 285 291 289 289 291 290 285 286 293 285 276
180 162 180 141 205 270 161 145 238 7 334 332 316 262 228 248 311 287 218 181 180 177 174 175 165 172 224 224 231 253 275 279 290 290 289 291 291 293 288 283 286 286 280 277
222 224 230 215 242 101 191 284 297 311 304 308 296 297 262 263 271 250 209 181 174 168 160 155 170 178 194 232 269 287 282 294 293 297 297 296 291 291 289 288 286 280 276 272
215 184 230 244 192 249 256 274 286 287 286 294 288 281 271 268 260 221 186 170 162 159 162 168 153 183 232 275 293 291 297 301 304 304 301 295 287 285 290 292 281 273 269 265
36 168 205 251 284 294 277 303 313 312 309 302 296 292 286 279 246 201 173 160 157 154 139 154 181 234 283 297 297 301 305 306 306 303 304 298 294 296 298 291 278 270 263 259
200 6 228 266 357 315 311 331 327 322 322 319 317 313 327 235 161 152 139 139 135 124 133 188 324 302 287 290 297 301 307 312 313 311 309 302 299 303 291 286 290 287 276 277
Height
1504 1501 1499 1494 1498 1497 1496 1499 1503 1513 1519 1515 1516 1520 1524 1528 1530 1532 1536 1539 1541 1544 1546 1546 1548 1551 1554 1556 1558 1561 1563 1566 1569 1571 1572 1573 1574 1573 1576 1577 1576 1576 1575 1574
1500 1496 1501 1502 1501 1499 1498 1502 1511 1518 1520 1515 1518 1521 1526 1528 1528 1531 1533 1535 1538 1541 1543 1543 1546 1549 1551 1554 1557 1559 1562 1566 1568 1569 1570 1572 1572 1574 1575 1574 1574 1574 1573 1571
1499 1502 1504 1500 1499 1501 1504 1503 1510 1509 1517 1516 1515 1519 1521 1528 1530 1532 1532 1533 1535 1538 1540 1543 1545 1547 1551 1554 1556 1559 1562 1564 1566 1568 1569 1571 1572 1573 1573 1573 1573 1572 1570 1569
1499 1502 1500 1498 1501 1500 1506 1508 1507 1509 1509 1510 1512 1507 1513 1520 1524 1527 1529 1531 1533 1536 1540 1542 1545 1547 1551 1553 1556 1559 1561 1563 1565 1567 1570 1572 1573 1573 1572 1571 1570 1570 1568 1566
1505 1502 1501 1500 1506 1505 1508 1510 1507 1506 1505 1509 1511 1511 1508 1518 1521 1523 1527 1530 1534 1537 1540 1542 1545 1548 1550 1551 1554 1558 1560 1562 1563 1565 1567 1569 1569 1569 1568 1568 1568 1567 1566 1563
1504 1505 1503 1505 1508 1507 1510 1510 1509 1508 1508 1516 1504 1511 1493 1506 1507 1517 1526 1531 1534 1537 1540 1543 1546 1549 1551 1552 1554 1556 1558 1560 1562 1563 1565 1566 1566 1566 1567 1566 1566 1565 1564 1562
1503 1506 1507 1508 1507 1512 1509 1507 1514 1523 1520 1519 1515 1514 1498 1501 1507 1512 1521 1528 1533 1536 1540 1543 1545 1548 1550 1552 1554 1556 1558 1559 1560 1562 1563 1564 1564 1563 1563 1563 1562 1561 1560 1558
1503 1514 1507 1508 1505 1503 1506 1505 1514 1530 1524 1515 1517 1511 1496 1505 1509 1512 1519 1525 1530 1534 1538 1541 1544 1548 1550 1552 1554 1556 1557 1559 1559 1560 1560 1559 1560 1561 1560 1559 1558 1557 1555 1552
1501 1507 1508 1509 1508 1508 1510 1510 1512 1521 1538 1529 1502 1500 1500 1508 1509 1512 1516 1523 1527 1531 1535 1539 1543 1545 1548 1550 1551 1553 1555 1556 1556 1557 1558 1557 1557 1557 1556 1555 1553 1551 1549 1547
1498 1509 1507 1510 1509 1510 1505 1510 1516 1515 1532 1525 1501 1504 1495 1505 1508 1511 1514 1520 1524 1529 1533 1537 1540 1542 1545 1547 1547 1549 1551 1552 1553 1555 1556 1555 1554 1553 1552 1551 1549 1547 1544 1542
1495 1497 1510 1509 1505 1502 1511 1510 1514 1512 1518 1519 1518 1496 1496 1500 1502 1507 1511 1517 1521 1525 1530 1534 1537 1539 1541 1543 1544 1546 1548 1549 1551 1552 1551 1551 1549 1549 1548 1547 1544 1542 1539 1536
1499 1498 1507 1504 1507 1508 1505 1504 1506 1513 1520 1524 1522 1503 1500 1502 1503 1506 1509 1514 1519 1523 1527 1531 1533 1535 1537 1539 1542 1543 1545 1547 1547 1547 1547 1546 1545 1545 1544 1542 1540 1537 1534 1530
1499 1500 1509 1510 1510 1508 1506 1505 1506 1512 1515 1518 1524 1499 1499 1501 1503 1504 1506 1510 1516 1521 1524 1527 1529 1531 1534 1536 1538 1540 1541 1543 1543 1543 1543 1543 1542 1541 1539 1537 1535 1532 1528 1524
1500 1498 1495 1499 1494 1495 1504 1504 1505 1504 1515 1506 1504 1491 1494 1497 1498 1500 1503 1507 1512 1515 1519 1522 1525 1527 1530 1532 1534 1536 1537 1538 1539 1538 1539 1539 1537 1535 1534 1532 1529 1526 1523 1520
1499 1497 1499 1502 1504 1503 1500 1499 1502 1502 1498 1506 1490 1493 1485 1490 1493 1495 1499 1503 1507 1511 1513 1517 1520 1523 1525 1527 1530 1531 1532 1534 1535 1534 1534 1534 1531 1529 1528 1526 1524 1521 1517 1515
1500 1500 1504 1505 1507 1507 1505 1499 1497 1497 1495 1496 1490 1489 1485 1489 1493 1495 1497 1500 1502 1505 1509 1512 1515 1518 1520 1523 1526 1526 1529 1530 1530 1530 1529 1528 1526 1524 1523 1521 1518 1516 1513 1511
1498 1502 1505 1504 1512 1510 1514 1496 1492 1490 1490 1491 1492 1482 1484 1489 1491 1492 1494 1496 1498 1500 1504 1507 1510 1513 1516 1519 1520 1522 1524 1524 1525 1525 1524 1522 1521 1519 1518 1515 1513 1510 1507 1506
1501 1502 1511 1511 1521 1516 1483 1489 1489 1486 1485 1483 1484 1482 1488 1487 1490 1491 1491 1493 1494 1497 1500 1504 1507 1510 1513 1515 1517 1519 1520 1521 1521 1521 1519 1518 1516 1514 1512 1509 1507 1504 1501 1500
1501 1503 1516 1514 1505 1492 1480 1489 1491 1491 1483 1480 1480 1481 1487 1491 1490 1487 1487 1488 1491 1494 1498 1502 1504 1507 1508 1511 1515 1517 1518 1518 1518 1517 1515 1513 1511 1508 1506 1504 1502 1499 1495 1496
1505 1504 1502 1517 1508 1505 1485 1491 1492 1491 1487 1484 1484 1483 1486 1489 1486 1481 1485 1486 1488 1492 1496 1498 1499 1502 1505 1508 1511 1514 1515 1514 1513 1512 1511 1509 1507 1505 1502 1499 1495 1492 1490 1490
1507 1511 1508 1510 1507 1493 1486 1491 1492 1493 1490 1485 1485 1483 1485 1486 1484 1484 1483 1484 1487 1490 1492 1493 1496 1499 1500 1503 1507 1509 1508 1508 1508 1506 1506 1504 1502 1499 1496 1493 1493 1488 1486 1484
1494 1501 1507 1512 1510 1502 1488 1492 1492 1487 1486 1486 1485 1485 1485 1485 1484 1483 1482 1482 1483 1485 1487 1492 1491 1493 1501 1504 1503 1505 1504 1503 1503 1500 1499 1498 1495 1492 1490 1487 1488 1485 1480 1479
1493 1488 1487 1491 1484 1485 1487 1486 1487 1487 1486 1486 1485 1485 1484 1483 1482 1481 1481 1482 1483 1485 1487 1489 1491 1494 1496 1500 1500 1500 1499 1497 1497 1495 1493 1491 1489 1487 1485 1483 1482 1481 1476 1474
1488 1491 1490 1491 1481 1483 1485 1486 1485 1485 1484 1483 1482 1480 1479 1478 1478 1478 1478 1479 1482 1483 1484 1487 1493 1495 1498 1496 1496 1496 1494 1493 1492 1490 1487 1486 1483 1482 1479 1477 1475 1474 1471 1469
1485 1489 1486 1486 1482 1482 1482 1484 1484 1482 1481 1479 1478 1476 1475 1475 1475 1476 1478 1480 1482 1483 1488 1491 1491 1494 1495 1495 1494 1492 1490 1488 1486 1484 1481 1480 1478 1476 1473 1473 1470 1467 1465 1465
1487 1485 1485 1482 1484 1483 1482 1483 1482 1480 1479 1477 1476 1475 1474 1474 1476 1480 1483 1484 1484 1487 1488 1492 1494 1494 1493 1491 1490 1488 1487 1484 1482 1479 1477 1475 1473 1470 1468 1468 1464 1461 1460 1458